Home > Weather > Moga > Past weeks

Flag for India Past Weather in Moga, Punjab, India — Yesterday and Last 2 Weeks

Now
102 °F

Broken clouds.


Feels Like: 126 °F
Forecast: 91 / 106 °F
Wind: 10 mph from East

Location: Amritsar Airport

Current Time: Jun 26, 2016 at 3:45:53 PM

Latest Report: Jun 26, 2016 at 3:00 PM


Visibility: 2 mi

Pressure: 29.56 "Hg

Humidity: 51%

Dew Point: 81 °F

Location of MogaLocation

Past Weather in Moga — Graph

°F

Moga Temperature Yesterday

Maximum temperature yesterday: 102 °F (at 2:00 PM)
Minimum temperature yesterday: 84 °F (at 2:00 AM)
Average temperature yesterday: 94 °F

High & Low Weather Summary for the Past Weeks

 TemperatureHumidityPressure
High104 °F (Jun 12, 3:30 PM)100% (Jun 17, 8:30 AM)29.68 "Hg (Jun 17, 8:30 AM)
Low73 °F (Jun 22, 10:30 AM)29% (Jun 11, 4:00 PM)29.33 "Hg (Jun 15, 5:00 PM)
Average90 °F65%29.53 "Hg
* Reported Jun 11 2:30 PM — Jun 26 2:30 PM, Moga, Weather by CustomWeather, © 2016

Note: Actual official high and low records may vary slightly from our data, if they occured in-between our weather recording intervals... More about our weather records

Advertising

Moga Weather History for the Previous 24 Hours

Scroll right to see more
 ConditionsComfort  
Time TempWeatherWind HumidityBarometerVisibility
2:30 PM
Sun, Jun 26
95 °FBroken clouds.12 mph60%29.56 "Hg2 mi
2:00 PM95 °FBroken clouds.12 mph60%29.59 "Hg2 mi
1:30 PM95 °FBroken clouds.12 mph56%29.59 "Hg2 mi
12:30 PM93 °FBroken clouds.13 mph56%29.62 "Hg2 mi
12:00 PM91 °FBroken clouds.14 mph59%29.62 "Hg2 mi
11:30 AM90 °FBroken clouds.14 mph63%29.65 "Hg2 mi
11:00 AM90 °FBroken clouds.13 mph59%29.65 "Hg2 mi
10:30 AM90 °FBroken clouds.15 mph59%29.65 "Hg2 mi
10:00 AM88 °FBroken clouds.15 mph66%29.65 "Hg2 mi
9:00 AM88 °FBroken clouds.13 mph70%29.65 "Hg2 mi
8:00 AM86 °FScattered clouds.13 mph70%29.62 "Hg2 mi
7:30 AM88 °FFog.10 mph75%29.59 "Hg2 mi
7:00 AM88 °FFog.15 mph75%29.68 "Hg1 mi
6:30 AM88 °FFog.14 mph84%29.62 "Hg1 mi
6:00 AM88 °FFog.10 mph84%29.62 "Hg1 mi
5:30 AM88 °FFog.5 mph84%29.59 "Hg1 mi
5:00 AM88 °FFog.5 mph84%29.59 "Hg1 mi
4:30 AM88 °FFog.2 mph89%29.56 "Hg1 mi
4:00 AM88 °FFog.2 mph89%29.56 "Hg1 mi
3:30 AM90 °FHaze.No wind79%29.56 "Hg1 mi
3:00 AM90 °FHaze.No wind79%29.56 "Hg1 mi
2:30 AM91 °FHaze.2 mph71%29.56 "Hg1 mi
2:00 AM90 °FHaze.No wind75%29.56 "Hg1 mi
1:30 AM90 °FHaze.No wind79%29.56 "Hg1 mi
1:00 AM88 °FHaze.No wind84%29.56 "Hg1 mi
12:30 AM88 °FHaze.2 mph79%29.59 "Hg1 mi
12:00 AM88 °FHaze.No wind79%29.59 "Hg1 mi
11:30 PM
Sat, Jun 25
91 °FHaze.5 mph67%29.59 "Hg1 mi
11:00 PM93 °FHaze.2 mph71%29.56 "Hg1 mi
10:30 PM93 °FHaze.No wind67%29.56 "Hg2 mi
10:00 PM93 °FHaze.No wind67%29.56 "Hg2 mi
9:30 PM93 °FHaze.No wind67%29.53 "Hg2 mi
9:00 PM95 °FHaze.No wind63%29.53 "Hg2 mi
8:30 PM95 °FHaze.No wind67%29.50 "Hg2 mi
7:30 PM97 °FScattered clouds.No wind60%29.50 "Hg2 mi
7:00 PM100 °FScattered clouds.No wind45%29.50 "Hg2 mi
6:30 PM102 °FScattered clouds.No wind42%29.50 "Hg2 mi
6:00 PM102 °FScattered clouds.2 mph42%29.50 "Hg2 mi
5:30 PM102 °FScattered clouds.3 mph42%29.50 "Hg2 mi
5:00 PM102 °FScattered clouds.No wind45%29.50 "Hg2 mi
4:30 PM102 °FScattered clouds.2 mph45%29.50 "Hg2 mi
4:00 PM100 °FScattered clouds.3 mph47%29.50 "Hg2 mi
3:30 PM102 °FScattered clouds.3 mph45%29.53 "Hg2 mi
3:00 PM102 °FScattered clouds.5 mph42%29.53 "Hg2 mi
Weather by CustomWeather, © 2016

See weather overviewHow to use our weather pages